Hourly Data Report for August 17, 2003

SHERBROOKE A
QUEBEC

45°26'00.000" N
71°41'00.000" W
241.40 m
7028124
71610
YSC

Download Data

Hourly Data (August 2003)
Hourly Data Report for August 17, 2003
TIME
LST
Temp Definition
°C
Dew Point Definition
°C
Rel Hum Definition
%
Precip. Amount Definition
mm

Wind Dir Definition
10's deg

Wind Spd Definition
km/h
Visibility Definition
km
Stn Press Definition
kPa
Hmdx Definition


Wind Chill Definition


Weather Definition


00:00 14.1 12.9 92   16 4 15.0 98.21      
01:00 14.1 13.2 94   28 4 9.7 98.19      
02:00 16.0 15.0 94   30 7 12.9 98.20      
03:00 16.4 15.2 93   21 6 15.0 98.28      
04:00 16.5 15.2 92     0 15.0 98.32      
05:00 16.3 15.2 93   26 6 8.0 98.42      
06:00 16.2 15.3 94   27 7 4.0 98.50      
07:00 16.5 15.5 94   24 6 4.8 98.55     Drizzle, Fog
08:00 17.0 15.4 90   26 4 16.1 98.54     Cloudy
09:00 17.6 15.5 87   25 4 19.3 98.56     Cloudy
10:00 18.0 15.2 84     0 24.1 98.61     Cloudy
11:00 20.7 16.0 74   22 4 24.1 98.59 25   Mostly Cloudy
12:00 21.9 15.7 68   21 9 24.1 98.56 26   Mainly Clear
13:00 21.8 15.9 69   27 6 24.1 98.57 26   Mainly Clear
14:00 23.0 15.8 64   30 7 24.1 98.55 27   Mainly Clear
15:00 19.1 16.3 84   4 11 19.3 98.59     Moderate Rain Showers
16:00 18.9 16.7 87   8 4 24.1 98.61     Mostly Cloudy
17:00 19.1 16.8 87     0 15.0 98.61      
18:00 19.3 17.6 90   14 4 15.0 98.63      
19:00 18.2 17.0 93   8 6 12.9 98.66      
20:00 17.7 16.5 93   6 4 15.0 98.69      
21:00 16.8 15.8 94   10 4 11.3 98.74      
22:00 17.0 15.7 92   4 6 15.0 98.73      
23:00 16.7 15.4 92   6 9 15.0 98.76      

Notes on Data Quality.

Legend

  • E = Estimated
  • M = Missing
  • NA = Not Available*
  • [empty] = Indicates an unobserved value
Date modified: